RH
40 35 34 35 37 38 40 43 46 48 50 61 74 89 92 90 82 69 64 56 47 42 45 57 63 70 67 63 61 58 63 67 69 72 76 82 92 98 100 98 91 92 78
45 42 40 40 39 39 41 47 59 67 75 79 81 71 51 47 44 40 35 24 14 13 14 16 22 27 42 49 53 54 55 53 55 61 69 76 78 85 91 99 100 100 99
67 72 72 67 63 62 69 76 76 63 56 50 46 43 34 34 31 18 14 13 14 15 17 17 17 18 21 22 22 34 46 52 56 59 61 68 78 87 85 87 93 96 97
72 84 84 88 88 74 70 58 53 51 48 42 30 18 15 14 14 13 12 13 14 14 15 15 16 16 16 16 15 16 21 32 45 52 57 55 62 69 79 86 88 90 95
85 71 56 60 58 56 55 47 36 34 30 21 16 13 12 12 13 13 14 15 16 17 19 20 18 18 16 15 14 12 12 14 14 26 52 54 68 63 71 80 92 92 94
23 18 22 32 30 26 21 18 16 15 14 13 12 12 12 12 14 17 19 22 27 26 27 27 27 26 22 20 18 18 19 18 18 19 22 42 60 74 72 82 87 100 100
16 17 16 16 15 15 14 14 13 12 12 12 12 12 16 19 21 22 18 18 18 19 19 18 16 16 16 16 14 12 12 12 13 14 17 20 25 64 100 100 100 100 100
18 17 16 15 14 14 14 14 13 12 12 14 19 21 20 16 15 14 15 18 19 21 21 21 19 18 18 15 14 14 13 14 16 16 16 15 20 53 100 100 100 100 100
16 15 14 13 13 12 12 12 13 14 21 22 19 18 18 20 23 29 32 33 30 26 25 21 16 13 10 9 9 8 8 9 10 12 18 18 20 46 100 100 100 100 100
13 12 12 14 15 16 16 20 22 22 20 21 22 29 34 41 37 29 27 29 34 27 25 23 19 14 10 10 9 8 8 7 7 10 14 18 26 44 100 100 100 100 100
12 16 17 18 21 21 24 24 23 26 24 28 38 41 35 30 31 31 36 42 46 42 39 29 22 13 14 12 10 8 7 7 6 6 9 21 26 40 97 100 100 100 100
19 20 20 21 22 20 22 27 28 28 39 38 32 31 30 42 61 73 67 60 57 49 42 33 26 16 13 21 22 14 14 11 7 7 8 17 29 46 64 89 98 100 93
14 12 13 15 18 22 28 30 36 45 38 34 34 42 49 58 61 60 60 65 56 55 51 45 37 27 18 19 52 40 44 44 24 29 16 22 33 40 76 83 87 96 90
15 16 20 24 27 30 32 42 44 38 38 43 54 59 65 64 60 62 63 52 55 54 54 53 55 50 42 32 44 50 66 42 57 47 46 69 40 56 77 74 77 64 73
19 23 26 28 31 37 41 40 36 38 48 52 58 66 66 63 60 61 57 56 68 58 48 47 52 54 55 54 53 57 80 85 78 62 77 93 74 52 59 53 60 86 83
21 24 28 35 36 33 34 38 39 46 54 62 65 67 64 55 61 59 59 61 59 62 54 50 48 48 49 54 54 58 63 71 97 100 100 100 100 100 91 84 80 53 36
33 32 31 31 33 40 42 43 44 55 62 66 61 56 55 64 60 58 61 63 64 56 72 94 72 56 51 46 53 55 59 61 67 73 73 74 73 92 92 58 50 39 45
38 36 37 38 40 45 47 47 52 59 61 54 50 54 56 57 65 59 58 53 66 77 84 89 84 58 53 51 47 51 46 50 56 58 57 60 66 71 70 67 62 56 49
45 46 44 44 45 47 47 48 47 47 46 45 46 46 48 54 56 53 71 69 66 58 62 81 89 84 72 68 68 60 60 58 52 50 50 54 57 59 58 58 59 61 58
59 56 52 49 49 48 54 56 66 71 66 63 58 54 52 56 65 66 57 59 73 69 74 80 92 100 100 100 80 62 58 63 72 62 59 60 57 58 62 60 65 63 59
89 90 66 62 63 62 63 76 86 89 90 83 80 84 81 84 73 72 74 79 61 72 86 100 99 85 98 100 85 79 81 67 72 70 77 62 60 60 66 69 80 81 79
98 100 90 82 77 79 86 89 94 83 84 87 94 90 81 86 95 78 84 78 95 100 100 83 100 100 100 100 99 87 85 88 74 69 63 72 66 59 66 66 70 79 86
100 100 100 100 100 100 98 96 98 95 100 100 100 96 86 92 89 89 95 96 100 100 100 97 78 100 100 100 100 98 87 86 82 73 72 68 75 76 57 63 63 66 77
100 98 90 92 98 88 79 95 97 100 100 100 100 100 100 100 100 100 100 95 82 75 92 100 100 100 90 100 100 99 100 92 90 81 79 62 79 83 65 54 56 64 72
82 71 67 84 94 99 84 100 100 100 100 100 100 100 100 100 100 100 100 100 100 100 99 87 96 100 99 96 96 100 100 100 87 72 94 68 78 81 76 55 58 63 68
100 100 100 100 100 100 95 100 100 100 100 100 100 100 100 100 100 100 100 100 100 100 100 100 100 100 100 100 100 100 100 92 100 100 89 100 96 76 75 64 64 63 74
Wind_Speed
51 55 57 59 60 62 64 66 68 70 72 73 75 76 78 80 81 83 84 86 86 86 86 87 85 84 83 83 82 83 80 79 79 79 82 83 83 82 81 79 78 77 75
59 61 63 65 66 68 70 73 77 78 80 82 84 84 84 86 86 86 87 88 87 87 87 86 88 89 91 92 90 89 87 87 86 87 85 85 85 84 83 83 84 83 81
64 67 69 71 73 76 78 81 83 84 85 86 88 90 88 88 88 88 87 88 90 90 90 90 90 90 91 91 92 93 92 90 89 88 86 85 86 86 85 83 79 80 82
73 75 77 79 80 81 82 84 87 88 88 89 89 90 89 90 91 91 91 91 92 92 93 92 92 92 91 91 91 90 90 87 85 82 80 81 78 78 83 86 83 81 79
77 80 82 81 83 84 86 88 89 90 91 91 91 92 91 92 92 93 92 88 86 86 85 87 88 88 88 89 90 89 88 88 87 85 78 77 72 73 77 74 76 79 79
77 79 80 81 83 84 86 88 90 91 92 92 93 93 93 92 88 83 77 73 72 74 74 74 75 76 77 79 81 81 83 83 81 80 79 75 67 55 56 62 68 72 68
76 78 80 81 84 86 89 91 92 93 93 93 93 93 84 75 72 74 75 74 74 73 73 75 76 76 78 80 81 82 81 82 83 84 84 82 76 53 44 69 52 59 64
79 80 82 83 87 89 91 92 92 91 90 84 76 75 75 74 70 67 62 58 56 56 56 57 57 56 57 59 60 60 61 62 64 67 71 74 74 62 64 67 62 64 64
81 82 84 87 88 90 90 90 86 79 70 70 69 65 61 58 51 43 40 38 38 40 42 46 47 49 49 48 50 54 58 59 59 59 58 59 60 68 70 67 68 61 62
83 85 86 86 84 81 77 71 67 67 60 54 51 47 40 38 34 28 26 27 31 35 38 42 45 46 45 46 43 42 44 45 46 46 51 49 53 67 76 73 69 66 68
83 75 73 70 67 65 64 63 56 53 50 42 32 29 26 27 29 28 27 27 29 34 37 40 41 38 36 38 36 33 31 33 34 35 35 36 46 54 71 81 73 56 67
61 61 61 62 62 60 53 50 48 42 31 26 21 20 18 17 18 20 22 23 26 28 33 35 37 30 26 23 24 19 21 22 21 22 28 33 40 48 59 72 77 83 84
55 52 51 50 49 47 46 41 34 26 23 20 17 14 12 11 12 14 14 14 19 24 29 32 35 34 31 25 23 21 22 21 15 15 14 25 34 38 55 61 70 84 85
43 38 37 38 37 35 32 26 24 20 18 12 9 7 8 9 10 11 13 17 19 25 30 33 33 32 31 29 22 25 24 22 23 17 10 13 29 33 32 35 46 72 80
29 25 24 25 23 20 20 20 19 15 11 10 8 8 8 9 11 12 13 17 22 25 27 29 29 31 31 28 25 22 24 29 27 26 26 25 24 27 30 33 36 46 48
20 17 16 15 15 17 18 17 15 11 10 10 9 9 10 12 9 14 19 21 23 26 30 30 30 30 30 29 28 23 18 17 23 33 34 34 31 41 45 47 49 47 46
17 16 15 13 12 12 15 16 14 11 10 10 10 13 14 12 13 16 17 18 21 26 29 34 34 33 33 32 29 27 25 23 19 18 20 22 28 35 43 41 41 48 47
17 18 15 13 13 13 15 14 12 12 12 13 14 16 17 18 19 20 21 23 24 28 29 33 36 37 37 38 36 35 33 26 23 24 23 21 21 24 29 32 36 38 40
15 14 15 15 15 15 14 14 14 15 19 20 19 21 23 26 27 23 23 23 26 29 28 33 35 39 40 41 41 41 43 42 37 31 29 26 27 28 28 29 31 34 36
15 16 15 15 16 18 19 19 20 21 23 25 27 30 33 35 36 33 32 30 28 33 35 38 39 42 45 46 46 46 42 41 43 42 38 36 35 33 32 33 35 38 39
18 20 21 21 21 23 22 26 29 29 31 32 35 38 40 41 42 42 41 40 41 43 45 44 45 45 48 48 51 54 54 48 46 42 44 41 42 41 39 38 37 38 39
23 26 26 26 26 28 29 31 33 34 37 39 41 43 44 45 46 47 49 50 49 51 52 47 48 49 52 51 55 54 56 54 53 48 47 44 47 47 45 44 42 43 44
33 33 34 33 33 34 34 34 33 37 39 41 41 44 47 48 48 50 51 53 55 53 51 54 55 58 59 57 58 56 57 60 60 58 57 51 53 56 53 52 49 48 50
44 44 43 44 46 47 47 47 47 48 51 50 52 54 55 59 58 58 59 61 61 60 58 60 53 61 56 55 58 63 64 70 66 61 60 61 62 65 62 57 55 53 54
51 50 51 54 59 59 54 53 53 54 57 62 61 63 65 67 66 67 70 70 70 70 71 70 68 68 71 71 70 69 74 75 73 70 68 68 69 69 69 65 60 59 59
63 63 65 64 66 69 71 68 67 67 66 67 66 69 69 72 74 75 77 78 78 76 77 78 80 83 75 74 77 79 79 79 77 77 74 70 74 75 77 72 67 65 65
Wind_Direction
282 280 280 281 282 283 285 285 286 286 285 285 284 286 287 286 285 284 284 283 282 281 279 279 277 276 275 274 274 273 272 271 270 270 270 270 270 270 270 271 271 271 273
283 282 282 282 282 283 284 285 286 285 284 284 284 284 284 284 284 283 283 283 282 282 280 278 277 275 273 272 271 270 271 270 269 269 268 266 265 265 267 267 268 269 270
286 285 285 284 283 283 283 284 284 285 285 285 285 287 287 285 285 285 285 284 282 281 279 278 276 274 273 271 270 268 267 268 268 267 265 264 264 263 263 265 266 267 266
284 284 283 284 284 284 283 283 283 283 284 285 286 286 287 287 287 286 285 284 282 281 280 279 278 276 273 272 271 269 268 267 265 262 262 259 259 263 264 264 265 266 267
281 281 282 281 281 283 283 284 284 284 285 285 286 286 287 288 287 286 285 283 281 281 281 281 279 276 274 272 271 270 268 265 262 261 260 260 260 260 262 266 268 268 267
282 282 281 281 282 282 282 284 284 285 286 287 288 289 289 288 286 285 285 285 283 282 281 281 281 280 279 277 274 272 270 268 264 261 258 256 256 255 261 266 266 266 265
282 283 283 281 281 282 282 285 287 288 290 290 290 289 289 289 286 284 285 284 284 283 282 281 281 281 280 279 277 275 272 269 266 263 259 256 253 246 236 246 257 253 258
283 284 283 284 284 285 286 287 290 289 289 289 290 289 289 289 289 287 288 287 286 286 287 288 288 289 287 286 284 280 276 272 267 262 257 252 249 237 231 232 241 245 254
284 284 285 285 285 287 286 287 288 290 290 292 292 292 292 291 293 296 298 297 294 295 296 296 297 296 295 291 285 280 276 273 269 263 260 255 241 232 226 229 237 246 254
287 287 286 285 285 285 286 288 290 292 294 293 294 294 297 299 300 300 302 307 307 308 308 311 312 311 310 304 299 290 281 276 269 260 255 250 239 224 221 228 237 250 255
290 288 285 284 284 285 287 291 293 293 292 293 293 296 295 298 310 320 321 320 316 314 315 316 319 319 315 305 298 295 294 287 276 261 251 251 242 228 225 231 234 241 255
289 286 284 283 284 288 290 292 292 292 294 292 289 289 301 317 323 318 317 322 321 322 322 326 329 330 326 324 325 323 320 307 297 273 250 239 238 231 228 230 229 229 237
293 290 287 286 287 287 288 290 290 293 287 287 294 305 315 310 299 300 313 327 334 339 347 344 342 344 348 350 347 347 340 353 344 5 278 235 239 238 232 236 231 230 234
297 291 287 285 284 285 286 285 286 281 284 289 305 305 289 292 296 318 331 350 3 1 358 3 2 357 354 351 353 344 334 343 345 340 333 326 243 238 245 256 259 247 244
306 303 299 292 287 287 286 283 277 276 280 287 271 267 277 286 314 330 335 347 352 353 355 356 2 4 5 5 359 347 338 330 328 330 325 316 297 294 291 285 280 269 261
314 309 304 298 299 293 286 275 273 272 266 263 261 272 296 314 332 338 331 332 340 346 353 353 349 354 358 1 4 6 356 334 308 303 308 302 280 278 288 289 288 286 277
335 329 324 313 304 301 282 276 271 261 253 265 284 300 311 308 316 330 331 331 333 335 347 346 346 348 351 352 356 358 355 353 348 331 314 303 293 285 284 284 283 284 283
345 341 334 328 316 296 283 281 269 264 277 289 298 305 312 314 309 311 312 321 334 337 337 341 337 339 341 341 343 344 348 341 336 332 328 319 301 293 291 293 290 289 287
338 333 328 327 319 303 295 293 300 297 301 300 301 306 312 315 311 300 313 319 320 325 325 329 328 331 335 336 336 337 340 337 335 334 326 318 318 317 313 305 300 299 294
304 313 308 303 299 304 304 301 299 296 294 295 297 301 308 313 314 307 307 308 308 321 320 319 322 321 321 325 326 329 332 330 327 325 327 327 327 327 320 316 317 312 307
288 284 286 288 289 290 290 288 289 290 293 294 295 296 297 302 307 302 305 309 308 312 312 313 315 316 315 315 317 319 323 326 325 317 318 319 322 323 325 322 322 322 315
287 286 288 291 292 292 293 292 292 291 290 292 296 296 296 296 300 298 297 301 302 307 309 304 307 308 307 305 310 310 315 319 320 317 312 312 316 319 319 317 317 316 319
283 284 281 281 281 282 287 288 290 293 292 294 299 302 303 305 305 305 301 298 299 297 300 300 302 307 305 302 301 301 308 311 311 312 314 310 311 315 312 314 316 317 315
284 281 282 285 286 285 287 287 290 289 294 291 294 297 297 300 296 297 298 303 304 300 302 297 296 292 292 295 295 296 300 304 304 304 307 310 310 308 309 308 312 314 314
281 278 278 280 286 288 286 285 286 288 288 289 291 293 293 293 292 292 296 297 299 297 300 303 302 300 295 295 295 292 294 297 299 303 303 304 306 306 307 306 311 312 313
276 277 277 277 280 285 286 285 283 282 283 284 283 284 285 289 290 290 289 292 291 293 294 295 298 299 297 293 290 292 293 294 296 297 300 299 300 302 304 306 308 311 312